Temp
75 73 74 64 59 60 50 43 47 50 59 67 70 70 71 72 73 74 73 75 75 76 76 76 76 75 75 73 74 72 74 74
73 74 71 69 69 58 51 45 42 50 52 56 65 69 71 73 74 71 73 73 73 76 76 77 77 77 77 75 74 74 75 75
65 64 66 64 59 55 54 49 46 45 53 62 67 70 72 73 74 72 72 72 73 74 76 76 76 76 75 74 74 74 74 74
65 66 69 65 63 58 55 50 44 48 55 70 69 70 72 74 73 72 73 72 72 73 73 73 74 75 75 74 74 75 74 73
61 62 64 62 60 53 52 50 46 50 56 69 68 69 70 70 72 71 71 70 71 71 71 72 73 73 74 74 74 73 73 73
56 61 62 60 62 59 57 53 50 52 58 65 66 68 69 69 70 71 70 70 70 69 70 71 73 72 72 73 73 73 73 73
57 64 64 64 65 64 61 56 59 57 57 62 63 64 68 70 71 71 70 69 69 70 69 69 70 71 72 72 72 73 71 72
55 62 65 63 64 65 64 60 59 60 59 66 66 68 68 67 69 68 70 72 73 73 72 71 71 70 71 71 71 72 71 70
52 57 61 59 61 61 62 62 63 56 62 67 65 67 65 67 70 71 73 74 74 74 72 71 71 72 71 69 69 68 67 67
52 52 48 61 66 68 65 65 66 66 68 68 66 67 68 69 69 69 70 70 70 71 72 72 71 71 67 66 66 66 65 66
52 46 54 63 66 65 63 61 67 67 69 71 71 70 69 70 70 67 67 67 67 67 69 69 66 66 65 64 64 65 64 65
47 49 48 60 69 73 70 56 69 70 68 69 69 62 64 69 69 69 68 66 65 66 65 64 64 65 64 63 64 64 64 65
48 49 56 64 70 72 58 60 69 70 68 69 65 66 67 69 68 68 67 65 65 64 63 64 65 65 63 63 62 64 64 64
48 48 51 70 69 65 65 64 70 69 68 68 66 66 66 67 66 66 64 64 64 63 63 63 65 65 62 62 63 64 66 66
57 56 61 63 66 66 68 68 68 68 69 68 66 66 66 66 65 64 63 62 64 62 60 61 61 63 62 62 63 66 66 65
58 61 61 66 68 70 70 69 69 70 68 68 66 66 65 64 63 62 62 61 62 61 59 59 60 61 62 63 65 66 66 65
55 60 66 67 67 68 68 69 69 69 69 68 67 66 65 63 63 61 61 62 61 60 60 61 63 63 63 64 64 65 65 65
57 64 62 64 66 70 68 68 68 68 66 67 67 64 64 65 64 62 61 62 61 62 63 63 64 65 65 65 66 65 64 64
63 65 66 68 70 71 68 68 68 67 66 64 64 64 66 64 63 60 63 63 63 62 61 61 61 61 63 65 64 64 62 62
MSLP
1003.43 1003.57 1004.36 1006.43 1007.76 1009.03 1011.08 1012.75 1012.42 1011.19 1009.12 1006.84 1005.42 1005.31 1005.36 1005.28 1005.49 1005.52 1005.76 1006.18 1006.97 1007.53 1007.94 1008.46 1009.20 1009.65 1010.22 1011.03 1011.52 1012.03 1012.54 1012.91
1003.47 1003.62 1004.44 1005.03 1006.55 1008.87 1010.90 1012.30 1012.51 1011.27 1009.78 1007.87 1005.78 1005.14 1005.05 1005.13 1005.14 1005.41 1005.71 1006.39 1006.80 1007.08 1007.46 1007.95 1008.44 1009.11 1009.88 1010.48 1010.92 1011.33 1011.97 1012.61
1004.22 1003.98 1004.29 1005.36 1006.67 1008.73 1010.61 1011.70 1012.12 1011.66 1009.51 1006.53 1005.54 1004.94 1004.78 1004.74 1004.76 1005.19 1005.58 1006.17 1006.44 1006.91 1007.23 1007.66 1008.16 1008.86 1009.47 1010.07 1010.45 1010.91 1011.52 1012.15
1004.50 1004.04 1004.05 1004.59 1006.09 1007.72 1010.10 1011.74 1011.98 1010.97 1008.28 1005.72 1005.25 1004.85 1004.68 1004.44 1004.81 1005.05 1005.63 1006.08 1006.36 1006.70 1007.07 1007.62 1008.00 1008.71 1009.14 1009.74 1010.24 1010.59 1011.18 1011.80
1004.77 1004.54 1004.23 1004.64 1005.71 1007.29 1008.43 1009.88 1011.13 1010.55 1007.83 1005.88 1005.36 1005.01 1004.79 1005.07 1004.95 1005.39 1005.73 1006.00 1006.41 1006.79 1007.13 1007.44 1007.89 1008.45 1008.94 1009.43 1009.79 1010.02 1010.82 1011.59
1004.99 1004.45 1004.22 1004.61 1005.42 1006.55 1007.41 1009.11 1010.17 1009.45 1007.88 1006.95 1006.61 1006.14 1005.53 1005.42 1005.43 1005.50 1005.97 1006.28 1006.31 1006.61 1007.10 1007.31 1007.44 1007.99 1008.79 1009.31 1009.48 1009.84 1010.45 1010.91
1004.65 1004.02 1004.06 1004.37 1005.08 1005.86 1006.82 1007.52 1007.99 1008.09 1008.18 1007.76 1007.38 1006.84 1006.22 1005.81 1005.70 1005.77 1006.12 1006.46 1006.72 1007.20 1007.58 1007.98 1008.61 1008.78 1008.89 1008.91 1009.14 1009.54 1010.25 1010.92
1005.36 1004.63 1004.50 1004.48 1005.08 1005.59 1006.27 1006.93 1007.44 1007.67 1008.04 1007.73 1007.23 1006.83 1006.51 1006.24 1006.17 1006.38 1006.37 1006.42 1006.92 1007.41 1007.38 1007.62 1007.79 1007.98 1008.40 1008.80 1009.22 1009.53 1010.26 1010.89
1006.37 1005.51 1005.02 1005.29 1005.25 1005.52 1006.17 1006.58 1006.93 1007.74 1008.00 1007.74 1007.66 1007.46 1007.08 1006.93 1006.84 1006.74 1006.64 1006.35 1006.33 1006.43 1006.43 1006.50 1006.75 1007.09 1007.71 1008.39 1008.98 1009.79 1010.68 1011.23
1007.45 1006.53 1006.49 1005.87 1005.35 1005.66 1005.89 1006.77 1006.79 1007.17 1007.53 1007.70 1007.87 1007.79 1007.58 1007.50 1007.58 1007.53 1007.48 1007.36 1007.21 1006.80 1006.45 1006.41 1006.26 1006.57 1007.49 1008.25 1008.88 1009.48 1010.20 1010.80
1008.17 1008.10 1007.49 1006.48 1005.79 1005.57 1005.75 1007.19 1007.11 1007.33 1007.62 1007.69 1007.68 1007.55 1007.90 1008.00 1008.01 1008.11 1008.09 1007.93 1007.60 1007.25 1006.82 1006.74 1007.38 1008.04 1008.48 1009.11 1009.46 1009.83 1010.08 1010.24
1008.85 1008.73 1007.76 1005.88 1005.08 1005.07 1005.59 1007.16 1006.99 1007.21 1007.49 1007.49 1007.79 1008.33 1008.66 1008.54 1008.42 1008.41 1008.56 1008.61 1008.48 1008.18 1008.24 1008.41 1009.02 1009.22 1009.59 1010.09 1010.51 1010.77 1010.77 1010.93
1008.49 1008.00 1006.94 1005.48 1005.09 1005.16 1006.02 1006.91 1006.88 1007.18 1007.25 1007.53 1008.13 1008.51 1008.69 1008.97 1009.11 1009.17 1009.31 1009.33 1009.35 1009.29 1009.41 1009.60 1009.76 1010.09 1010.54 1010.73 1010.82 1010.96 1010.79 1010.53
1008.41 1007.65 1006.39 1005.00 1005.37 1005.49 1005.74 1006.42 1006.64 1007.02 1007.36 1007.79 1008.13 1008.74 1009.19 1009.36 1009.38 1009.45 1009.90 1010.04 1010.03 1010.15 1010.31 1010.37 1010.31 1010.37 1010.79 1010.97 1011.11 1010.84 1010.77 1010.61
1006.63 1006.14 1005.46 1004.98 1004.85 1005.01 1005.38 1005.95 1006.79 1007.10 1007.61 1008.00 1008.64 1009.11 1009.49 1009.69 1009.81 1010.09 1010.36 1010.43 1010.53 1010.72 1010.84 1010.96 1010.84 1010.84 1011.01 1011.12 1010.95 1010.89 1010.86 1010.62
1006.14 1006.00 1005.65 1005.22 1005.31 1005.40 1005.81 1006.36 1006.94 1007.21 1007.72 1008.27 1008.83 1009.51 1009.84 1010.20 1010.59 1010.88 1011.10 1011.14 1011.16 1011.25 1011.52 1011.67 1011.52 1011.36 1011.35 1011.27 1011.09 1010.92 1010.96 1011.03
1006.37 1006.34 1005.96 1006.09 1005.94 1006.16 1006.67 1007.02 1007.44 1007.86 1008.13 1008.47 1008.96 1009.70 1010.15 1010.80 1011.35 1011.75 1011.90 1011.98 1012.01 1012.07 1012.15 1012.15 1012.00 1011.84 1011.69 1011.49 1011.25 1011.14 1011.16 1011.27
1005.23 1004.79 1004.91 1006.04 1006.36 1006.53 1006.93 1007.57 1007.84 1008.15 1008.80 1009.06 1009.39 1009.85 1010.47 1011.23 1011.83 1012.21 1012.42 1012.47 1012.54 1012.68 1012.64 1012.46 1012.23 1012.07 1011.79 1011.51 1011.25 1011.14 1011.13 1011.35
1003.61 1004.46 1004.76 1005.51 1006.38 1006.81 1007.25 1007.89 1008.30 1008.57 1008.82 1009.50 1010.23 1010.60 1011.13 1011.77 1012.41 1012.77 1012.92 1012.99 1013.09 1013.16 1013.12 1013.15 1013.10 1012.86 1012.46 1012.04 1011.87 1012.09 1011.91 1012.07
Wind_Speed
4 4 9 5 4 5 9 2 3 4 7 8 6 3 5 6 7 8 7 10 10 10 12 12 12 14 14 13 12 8 10 8
1 4 3 7 6 4 4 3 1 6 6 7 5 3 3 5 7 4 5 8 8 10 12 11 11 12 12 12 15 15 13 10
2 4 9 2 2 8 7 3 6 1 9 8 8 8 8 8 8 7 7 8 9 9 9 9 7 11 12 12 12 12 11 9
10 2 3 4 7 7 6 3 2 3 9 5 9 8 8 8 7 3 5 8 8 8 8 9 10 10 12 10 10 10 8 7
10 7 2 2 4 5 7 5 5 6 8 3 6 8 6 5 7 3 5 7 7 7 9 10 9 9 9 9 10 9 9 7
8 8 4 1 2 5 5 5 6 7 6 8 11 10 9 5 3 4 5 6 7 7 7 8 10 10 7 7 7 7 8 9
4 3 4 3 2 8 6 5 6 2 5 7 9 9 8 6 2 4 5 6 4 2 1 1 4 3 6 7 7 7 8 8
2 1 4 3 5 7 4 4 2 7 4 5 7 4 6 7 7 6 4 3 1 3 5 6 7 8 7 6 5 8 7 6
4 2 3 5 2 4 4 1 6 5 5 4 7 9 10 7 6 6 5 1 4 7 9 9 10 11 11 8 9 10 11 10
3 3 2 6 2 3 13 4 6 7 4 3 4 3 7 9 6 7 7 7 7 7 5 5 7 9 10 10 12 14 13 11
6 3 3 4 3 5 5 2 1 6 4 5 4 3 6 6 5 4 5 6 6 9 5 2 5 7 11 11 10 9 7 8
3 6 7 10 4 4 5 1 3 6 5 6 2 4 4 4 5 6 7 6 7 7 8 11 8 7 9 8 7 5 3 6
4 3 6 6 4 5 6 8 6 6 6 6 5 4 1 2 3 3 3 7 6 9 10 8 8 8 8 5 4 3 3 6
4 5 2 7 5 8 7 3 7 5 4 5 4 5 3 2 2 5 8 7 7 7 7 6 5 6 6 6 5 4 1 1
7 8 3 2 3 4 4 8 5 7 5 7 6 4 4 2 5 7 6 6 6 6 8 7 5 5 6 2 4 3 3 4
5 2 2 6 5 6 4 7 6 5 6 6 7 5 3 4 5 5 5 6 5 8 8 8 5 6 3 3 3 2 2 3
3 4 8 6 5 9 9 9 9 6 4 6 9 6 5 6 6 5 6 6 5 5 4 4 2 2 0 2 3 3 2 1
7 11 6 7 7 11 13 8 8 9 4 2 2 7 8 7 6 5 6 5 7 6 6 5 6 6 4 2 2 3 4 3
7 7 6 12 11 5 11 9 5 6 5 7 5 7 9 6 5 6 8 8 7 6 7 7 7 7 8 6 5 5 5 3
Wind_Direction
208 144 133 197 196 173 102 5 11 296 293 309 293 227 195 213 204 236 211 191 186 186 192 184 181 185 185 182 205 205 214 210
18 88 66 160 148 96 33 165 269 315 290 245 300 266 233 220 234 242 188 166 176 187 188 190 190 187 181 185 188 197 203 206
6 181 180 124 110 57 108 106 152 178 273 218 248 237 220 232 231 192 195 170 178 183 184 187 178 175 181 183 182 186 185 185
225 208 186 142 166 129 125 218 59 136 272 238 243 259 232 238 243 209 158 180 171 175 164 171 179 173 180 180 184 192 176 171
347 1 33 174 113 101 102 99 188 133 262 325 309 298 286 275 272 221 176 168 166 168 176 177 183 181 180 178 185 173 158 159
182 203 165 105 146 138 112 116 169 224 285 342 341 327 312 316 280 214 211 192 193 184 182 184 192 182 172 176 183 175 165 178
233 172 161 159 155 160 178 165 149 224 195 312 300 303 305 316 188 161 196 230 253 354 56 356 44 97 154 179 180 176 159 178
183 253 248 120 89 116 103 132 27 88 49 306 305 341 2 25 72 68 41 14 98 106 153 171 169 171 176 174 165 137 129 120
213 30 74 21 316 114 109 94 135 110 209 291 16 28 22 9 36 63 48 7 252 204 191 185 179 171 173 146 121 110 102 101
141 54 173 250 290 155 109 68 77 101 126 136 154 122 46 31 34 32 9 5 350 331 298 206 186 169 132 128 125 127 131 121
117 84 285 9 245 189 137 46 107 130 158 208 196 53 33 23 22 3 351 348 340 337 317 87 80 100 115 117 125 129 150 169
109 127 189 222 219 164 117 63 222 145 129 134 140 61 267 352 350 355 358 3 355 8 39 60 57 71 95 86 70 38 333 267
138 143 274 244 192 142 101 224 169 143 142 145 120 189 163 55 9 342 359 24 41 55 68 65 72 81 64 64 71 141 226 276
89 88 196 180 70 152 194 115 140 135 132 109 110 103 106 86 5 24 34 29 35 64 61 43 52 84 77 57 340 344 26 25
160 201 252 312 196 97 126 129 161 123 139 142 133 163 181 122 32 28 28 30 48 64 63 44 41 90 97 25 347 2 44 34
107 38 90 120 69 87 124 117 124 123 136 144 142 164 143 90 51 45 39 46 56 74 67 66 64 66 69 355 350 42 45 32
77 77 76 35 98 121 100 104 104 86 124 142 145 162 113 91 71 64 63 55 57 72 77 73 28 45 226 287 7 32 38 346
199 183 131 167 162 139 129 136 140 134 119 87 132 109 103 100 89 78 64 62 66 61 63 32 33 37 24 37 73 86 67 36
151 155 113 127 134 136 134 148 149 133 121 129 76 97 114 100 86 80 78 72 63 61 53 44 32 20 4 8 11 17 76 49